LER971 SVBC-SVMI

Flight info

Callsign LER971
Flight time 0h 39m
Altitude 28000
Route ARVEX1 ISULA DCT CBC DCT TENEL DCT NETSI NETSI1
Aircraft MD83/M-SDFGIRWY/S

Departure

Time 2026-04-20 18:59
Airport General José Antonio Anzoategui International Airport (SVBC)

Arrival

Time 2026-04-20 19:39
Airport Maiquetía Simón Bolívar International Airport (SVMI)
Time Latitude Longitude Altitude Speed Heading
2026-04-20 18:33 10.10334 -64.68287 129 ft 0 kts 53°
2026-04-20 18:46 10.10334 -64.68288 40 ft 1 kts 53°
2026-04-20 18:47 10.10324 -64.68300 40 ft 3 kts 51°
2026-04-20 18:47 10.10312 -64.68316 40 ft 3 kts 57°
2026-04-20 18:47 10.10301 -64.68334 40 ft 3 kts 57°
2026-04-20 18:47 10.10290 -64.68351 40 ft 3 kts 58°
2026-04-20 18:48 10.10281 -64.68367 40 ft 2 kts 60°
2026-04-20 18:48 10.10279 -64.68370 40 ft 2 kts 60°
2026-04-20 18:53 10.10280 -64.68369 40 ft 1 kts 60°
2026-04-20 18:53 10.10282 -64.68364 40 ft 0 kts 74°
2026-04-20 18:53 10.10280 -64.68362 40 ft 0 kts 106°
2026-04-20 18:53 10.10272 -64.68359 40 ft 3 kts 164°
2026-04-20 18:54 10.10263 -64.68356 40 ft 2 kts 155°
2026-04-20 18:54 10.10243 -64.68336 40 ft 9 kts 134°
2026-04-20 18:54 10.10181 -64.68286 40 ft 10 kts 155°
2026-04-20 18:54 10.10115 -64.68323 40 ft 16 kts 231°
2026-04-20 18:55 10.10031 -64.68437 40 ft 24 kts 233°
2026-04-20 18:55 10.09917 -64.68584 40 ft 27 kts 231°
2026-04-20 18:55 10.09832 -64.68701 40 ft 19 kts 243°
2026-04-20 18:55 10.09871 -64.68812 40 ft 19 kts 323°
2026-04-20 18:56 10.09977 -64.68892 40 ft 19 kts 323°
2026-04-20 18:56 10.10086 -64.68973 40 ft 20 kts 323°
2026-04-20 18:56 10.10085 -64.69064 38 ft 16 kts 204°
2026-04-20 18:56 10.09972 -64.69090 38 ft 17 kts 192°
2026-04-20 18:57 10.09854 -64.69116 40 ft 17 kts 192°
2026-04-20 18:57 10.09737 -64.69143 42 ft 18 kts 193°
2026-04-20 18:57 10.09585 -64.69177 40 ft 27 kts 192°
2026-04-20 18:57 10.09402 -64.69219 44 ft 27 kts 192°
2026-04-20 18:58 10.09293 -64.69276 45 ft 12 kts 203°
2026-04-20 18:58 10.09270 -64.69277 45 ft 0 kts 138°
2026-04-20 18:58 10.09270 -64.69273 45 ft 0 kts 90°
2026-04-20 18:58 10.09278 -64.69258 45 ft 6 kts 58°
2026-04-20 18:59 10.09347 -64.69231 45 ft 21 kts 12°
2026-04-20 18:59 10.09722 -64.69146 42 ft 93 kts 13°
2026-04-20 18:59 10.10583 -64.68958 43 ft 158 kts 14°
2026-04-20 18:59 10.11733 -64.68688 648 ft 169 kts 15°
2026-04-20 19:00 10.12876 -64.68402 1560 ft 173 kts 16°
2026-04-20 19:00 10.13980 -64.68124 2577 ft 158 kts 13°
2026-04-20 19:00 10.15169 -64.67861 2786 ft 198 kts
2026-04-20 19:00 10.16623 -64.67649 2653 ft 221 kts
2026-04-20 19:01 10.18196 -64.67430 2583 ft 234 kts
2026-04-20 19:01 10.19847 -64.67215 2683 ft 244 kts
2026-04-20 19:01 10.21598 -64.67158 3213 ft 264 kts 347°
2026-04-20 19:01 10.23162 -64.68139 3952 ft 272 kts 309°
2026-04-20 19:02 10.23815 -64.69163 4478 ft 275 kts 297°
2026-04-20 19:02 10.24472 -64.70975 5235 ft 279 kts 283°
2026-04-20 19:02 10.24750 -64.72935 6024 ft 282 kts 273°
2026-04-20 19:02 10.24840 -64.74929 6783 ft 284 kts 271°
2026-04-20 19:03 10.24889 -64.76942 7498 ft 286 kts 270°
2026-04-20 19:03 10.24920 -64.78974 8197 ft 289 kts 270°
2026-04-20 19:03 10.24939 -64.81024 8882 ft 291 kts 270°
2026-04-20 19:03 10.24953 -64.83087 9549 ft 293 kts 269°
2026-04-20 19:04 10.24967 -64.85173 10088 ft 301 kts 270°
2026-04-20 19:04 10.24903 -64.87323 10305 ft 316 kts 265°
2026-04-20 19:04 10.24780 -64.89601 10603 ft 328 kts 269°
2026-04-20 19:04 10.24849 -64.91933 11080 ft 333 kts 275°
2026-04-20 19:05 10.25124 -64.94270 11628 ft 334 kts 278°
2026-04-20 19:05 10.25526 -64.96602 12192 ft 336 kts 281°
2026-04-20 19:05 10.26009 -64.98929 12698 ft 338 kts 282°
2026-04-20 19:05 10.26545 -65.01266 13172 ft 342 kts 283°
2026-04-20 19:06 10.27115 -65.03624 13688 ft 345 kts 284°
2026-04-20 19:06 10.27700 -65.05989 14170 ft 346 kts 284°
2026-04-20 19:06 10.28290 -65.08362 14619 ft 348 kts 284°
2026-04-20 19:06 10.28883 -65.10752 15064 ft 350 kts 284°
2026-04-20 19:07 10.29474 -65.13158 15502 ft 352 kts 284°
2026-04-20 19:07 10.30062 -65.15581 15925 ft 355 kts 284°
2026-04-20 19:07 10.30647 -65.18017 16364 ft 356 kts 284°
2026-04-20 19:07 10.31233 -65.20472 16786 ft 359 kts 284°
2026-04-20 19:08 10.31822 -65.22940 17180 ft 361 kts 284°
2026-04-20 19:08 10.33014 -65.27929 18005 ft 365 kts 284°
2026-04-20 19:08 10.33616 -65.30442 18383 ft 367 kts 284°
2026-04-20 19:09 10.34222 -65.32973 18747 ft 369 kts 284°
2026-04-20 19:09 10.34850 -65.35498 19110 ft 370 kts 286°
2026-04-20 19:09 10.35604 -65.38000 19458 ft 371 kts 288°
2026-04-20 19:09 10.36425 -65.40492 19784 ft 373 kts 289°
2026-04-20 19:10 10.37267 -65.42994 20123 ft 375 kts 289°
2026-04-20 19:10 10.38114 -65.45505 20478 ft 376 kts 289°
2026-04-20 19:10 10.38944 -65.47993 20797 ft 378 kts 289°
2026-04-20 19:10 10.39783 -65.50532 21119 ft 380 kts 289°
2026-04-20 19:11 10.40617 -65.53083 21442 ft 382 kts 289°
2026-04-20 19:11 10.41451 -65.55652 21756 ft 384 kts 289°
2026-04-20 19:11 10.42284 -65.58235 22060 ft 386 kts 289°
2026-04-20 19:11 10.43120 -65.60833 22372 ft 387 kts 289°
2026-04-20 19:12 10.43960 -65.63438 22666 ft 390 kts 289°
2026-04-20 19:12 10.44805 -65.66058 22976 ft 391 kts 289°
2026-04-20 19:12 10.45656 -65.68693 23277 ft 393 kts 289°
2026-04-20 19:12 10.46510 -65.71343 23568 ft 395 kts 289°
2026-04-20 19:13 10.47369 -65.73994 23845 ft 396 kts 289°
2026-04-20 19:13 10.48231 -65.76655 24145 ft 396 kts 289°
2026-04-20 19:13 10.49089 -65.79315 24423 ft 397 kts 288°
2026-04-20 19:13 10.49949 -65.81990 24681 ft 399 kts 288°
2026-04-20 19:14 10.50808 -65.84668 24969 ft 399 kts 288°
2026-04-20 19:14 10.51679 -65.87378 24963 ft 407 kts 288°
2026-04-20 19:14 10.52542 -65.90066 24931 ft 400 kts 288°
2026-04-20 19:14 10.53396 -65.92723 24919 ft 394 kts 288°
2026-04-20 19:15 10.54247 -65.95363 24912 ft 392 kts 288°
2026-04-20 19:15 10.55095 -65.97992 24908 ft 390 kts 288°
2026-04-20 19:15 10.55939 -66.00608 24907 ft 389 kts 288°
2026-04-20 19:15 10.56781 -66.03212 24905 ft 387 kts 288°
2026-04-20 19:16 10.57804 -66.05727 24913 ft 385 kts 300°
2026-04-20 19:16 10.59282 -66.07989 24904 ft 384 kts 306°
2026-04-20 19:16 10.60867 -66.10166 24904 ft 383 kts 307°
2026-04-20 19:16 10.62466 -66.12326 24856 ft 383 kts 307°
2026-04-20 19:17 10.64089 -66.14520 24432 ft 395 kts 307°
2026-04-20 19:17 10.65749 -66.16785 23995 ft 402 kts 307°
2026-04-20 19:17 10.67411 -66.19080 23563 ft 403 kts 307°
2026-04-20 19:17 10.69055 -66.21376 23205 ft 395 kts 307°
2026-04-20 19:18 10.70640 -66.23602 23032 ft 384 kts 307°
2026-04-20 19:18 10.72191 -66.25783 22976 ft 380 kts 307°
2026-04-20 19:18 10.73741 -66.27964 22940 ft 380 kts 307°
2026-04-20 19:18 10.75267 -66.30116 22925 ft 380 kts 307°
2026-04-20 19:19 10.76816 -66.32303 22918 ft 380 kts 307°
2026-04-20 19:19 10.78358 -66.34480 22914 ft 380 kts 307°
2026-04-20 19:19 10.79908 -66.36678 22917 ft 386 kts 305°
2026-04-20 19:19 10.81073 -66.39159 22846 ft 395 kts 286°
2026-04-20 19:20 10.81365 -66.41945 22346 ft 397 kts 266°
2026-04-20 19:20 10.80955 -66.44683 21816 ft 388 kts 260°
2026-04-20 19:20 10.80400 -66.47339 21288 ft 379 kts 259°
2026-04-20 19:20 10.79848 -66.49926 20787 ft 370 kts 259°
2026-04-20 19:21 10.79318 -66.52459 20288 ft 362 kts 259°
2026-04-20 19:21 10.78821 -66.54943 19802 ft 355 kts 259°
2026-04-20 19:21 10.78359 -66.57387 19325 ft 348 kts 260°
2026-04-20 19:21 10.77927 -66.59786 18851 ft 342 kts 260°
2026-04-20 19:22 10.77517 -66.62152 18389 ft 337 kts 260°
2026-04-20 19:22 10.77126 -66.64460 17887 ft 334 kts 260°
2026-04-20 19:22 10.76732 -66.66780 17352 ft 332 kts 260°
2026-04-20 19:22 10.76340 -66.69084 16834 ft 330 kts 260°
2026-04-20 19:23 10.75949 -66.71374 16321 ft 327 kts 260°
2026-04-20 19:23 10.75560 -66.73647 15818 ft 325 kts 261°
2026-04-20 19:23 10.75172 -66.75909 15319 ft 323 kts 261°
2026-04-20 19:23 10.74788 -66.78151 14836 ft 321 kts 261°
2026-04-20 19:24 10.74405 -66.80380 14411 ft 316 kts 261°
2026-04-20 19:24 10.74029 -66.82562 14188 ft 313 kts 261°
2026-04-20 19:24 10.73650 -66.84752 13843 ft 315 kts 261°
2026-04-20 19:24 10.73271 -66.86948 13477 ft 315 kts 261°
2026-04-20 19:25 10.72892 -66.89140 13104 ft 314 kts 261°
2026-04-20 19:25 10.72688 -66.90593 12852 ft 313 kts 265°
2026-04-20 19:25 10.72602 -66.92791 12482 ft 311 kts 270°
2026-04-20 19:25 10.72622 -66.95690 11986 ft 307 kts 271°
2026-04-20 19:26 10.72654 -66.97855 11629 ft 305 kts 271°
2026-04-20 19:26 10.72686 -67.00001 11274 ft 303 kts 271°
2026-04-20 19:26 10.72713 -67.02141 10917 ft 301 kts 271°
2026-04-20 19:26 10.72726 -67.03578 10679 ft 300 kts 270°
2026-04-20 19:27 10.72738 -67.05668 10332 ft 298 kts 270°
2026-04-20 19:27 10.72743 -67.07770 9990 ft 296 kts 270°
2026-04-20 19:27 10.72743 -67.09868 9523 ft 296 kts 270°
2026-04-20 19:27 10.72738 -67.11949 8940 ft 290 kts 269°
2026-04-20 19:28 10.72731 -67.13969 8370 ft 281 kts 270°
2026-04-20 19:28 10.72723 -67.15935 7803 ft 276 kts 269°
2026-04-20 19:28 10.72715 -67.17872 7256 ft 272 kts 270°
2026-04-20 19:28 10.72706 -67.19778 6734 ft 267 kts 270°
2026-04-20 19:29 10.72702 -67.21649 6175 ft 263 kts 270°
2026-04-20 19:29 10.72706 -67.23499 5608 ft 260 kts 270°
2026-04-20 19:29 10.72715 -67.25332 5053 ft 258 kts 270°
2026-04-20 19:29 10.72726 -67.27155 4494 ft 257 kts 270°
2026-04-20 19:30 10.72712 -67.28927 4307 ft 241 kts 264°
2026-04-20 19:30 10.72327 -67.30509 4248 ft 224 kts 244°
2026-04-20 19:30 10.71471 -67.31783 4206 ft 216 kts 221°
2026-04-20 19:30 10.70245 -67.32655 4167 ft 216 kts 200°
2026-04-20 19:31 10.68783 -67.32835 4133 ft 214 kts 163°
2026-04-20 19:31 10.67402 -67.32266 4089 ft 215 kts 150°
2026-04-20 19:31 10.66064 -67.31572 4042 ft 217 kts 150°
2026-04-20 19:31 10.64748 -67.30876 3989 ft 216 kts 150°
2026-04-20 19:32 10.63430 -67.30145 3938 ft 216 kts 148°
2026-04-20 19:32 10.62119 -67.29390 3888 ft 217 kts 148°
2026-04-20 19:32 10.60810 -67.28625 3836 ft 218 kts 148°
2026-04-20 19:32 10.59519 -67.27824 3784 ft 214 kts 138°
2026-04-20 19:33 10.58831 -67.26608 3704 ft 195 kts 89°
2026-04-20 19:33 10.59022 -67.25325 3884 ft 180 kts 79°
2026-04-20 19:33 10.59220 -67.24020 3837 ft 188 kts 83°
2026-04-20 19:33 10.59369 -67.22699 3787 ft 188 kts 83°
2026-04-20 19:34 10.59535 -67.21373 3741 ft 191 kts 82°
2026-04-20 19:34 10.59711 -67.20025 3640 ft 193 kts 83°
2026-04-20 19:34 10.59829 -67.18664 3514 ft 193 kts 86°
2026-04-20 19:34 10.59875 -67.17301 3307 ft 190 kts 88°
2026-04-20 19:35 10.59919 -67.15966 3045 ft 188 kts 87°
2026-04-20 19:35 10.59961 -67.14652 2807 ft 185 kts 88°
2026-04-20 19:35 10.59997 -67.13356 2786 ft 184 kts 87°
2026-04-20 19:35 10.60046 -67.12046 2686 ft 188 kts 88°
2026-04-20 19:36 10.60078 -67.10720 2321 ft 190 kts 89°
2026-04-20 19:36 10.60117 -67.09409 1966 ft 179 kts 88°
2026-04-20 19:36 10.60156 -67.08208 1679 ft 163 kts 89°
2026-04-20 19:36 10.60191 -67.07096 1382 ft 152 kts 87°
2026-04-20 19:37 10.60222 -67.06057 1107 ft 143 kts 88°
2026-04-20 19:37 10.60253 -67.05087 944 ft 132 kts 86°
2026-04-20 19:37 10.60295 -67.04156 666 ft 131 kts 86°
2026-04-20 19:37 10.60334 -67.03170 632 ft 148 kts 87°
2026-04-20 19:38 10.60345 -67.02139 462 ft 145 kts 87°
2026-04-20 19:38 10.60381 -67.01150 256 ft 137 kts 88°
2026-04-20 19:38 10.60412 -67.00245 227 ft 116 kts 89°
2026-04-20 19:38 10.60433 -66.99565 208 ft 65 kts 88°
2026-04-20 19:39 10.60444 -66.99225 198 ft 31 kts 88°
2026-04-20 19:39 10.60406 -66.99119 202 ft 16 kts 167°
2026-04-20 19:39 10.60319 -66.99120 189 ft 12 kts 195°
2026-04-20 19:39 10.60278 -66.99189 185 ft 14 kts 264°
2026-04-20 19:40 10.60274 -66.99331 202 ft 25 kts 268°
2026-04-20 19:40 10.60269 -66.99509 202 ft 25 kts 268°
2026-04-20 19:40 10.60263 -66.99680 210 ft 24 kts 268°
2026-04-20 19:40 10.60259 -66.99838 213 ft 21 kts 268°
2026-04-20 19:41 10.60231 -66.99915 221 ft 9 kts 206°
2026-04-20 19:41 10.60167 -66.99919 218 ft 9 kts 179°
2026-04-20 19:41 10.60096 -66.99917 219 ft 12 kts 179°
2026-04-20 19:41 10.59998 -66.99914 219 ft 16 kts 178°
2026-04-20 19:42 10.59922 -66.99924 220 ft 12 kts 198°
2026-04-20 19:42 10.59865 -66.99929 220 ft 7 kts 178°
2026-04-20 19:42 10.59848 -66.99929 220 ft 1 kts 178°
2026-04-20 19:42 10.59845 -66.99929 220 ft 0 kts 178°